[Iaude] MPEC P06: 2020 KA11 [a=1.37,e=0.13,i=6.9,H=22.4]

mpec at marsden.cfa.harvard.edu mpec at marsden.cfa.harvard.edu
Sat Aug 1 23:01:06 EDT 2020


M.P.E.C. 2020-P06                                Issued 2020 August 2, 02:58 UT

     The Minor Planet Electronic Circulars contain information on unusual
         minor planets and routine data on comets.  They are published
    on behalf of Division F of the International Astronomical Union by the
          Minor Planet Center, Smithsonian Astrophysical Observatory,
                          Cambridge, MA 02138, U.S.A.

             Prepared using the Tamkin Foundation Computer Network

                              MPC at CFA.HARVARD.EDU
            URL https://www.minorplanetcenter.net/    ISSN 1523-6714

                                   2020 KA11                                    


Observations:
     K20K11A* C2020 05 16.33074 16 04 03.673-10 24 50.95         20.9 wUEP006F51
     K20K11A  C2020 05 16.34243 16 04 03.024-10 24 30.44         20.8 wUEP006F51
     K20K11A  C2020 05 16.35407 16 04 02.381-10 24 09.91         20.8 wUEP006F51
     K20K11A  C2020 05 16.36576 16 04 01.715-10 23 49.29         20.7 wUEP006F51
     K20K11A  C2020 05 21.44365 15 59 51.409-07 51 30.60         21.0 wUEP006F51
     K20K11A  C2020 05 21.45639 15 59 50.597-07 51 07.52         21.2 wUEP006F51
     K20K11A  C2020 05 21.46914 15 59 49.761-07 50 44.33         21.0 wUEP006F51
     K20K11A  C2020 05 21.48192 15 59 48.936-07 50 21.14         21.3 wUEP006F51
     K20K11A  C2020 05 24.33077 15 57 19.87 -06 25 01.5          20.7 GVEP006G96
     K20K11A  C2020 05 24.33597 15 57 19.55 -06 24 52.5          20.5 GVEP006G96
     K20K11A  C2020 05 24.34117 15 57 19.20 -06 24 43.3                VEP006G96
     K20K11A  C2020 05 24.34637 15 57 18.84 -06 24 33.8          20.4 GVEP006G96
     K20K11A  C2020 06 11.32786 15 44 08.231+01 17 59.32         21.1 wUEP006F51
     K20K11A  C2020 06 11.33990 15 44 07.739+01 18 13.68         21.0 wUEP006F51
     K20K11A  C2020 06 11.35197 15 44 07.263+01 18 28.01         20.9 wUEP006F51
     K20K11A  C2020 06 23.36118 15 42 12.521+04 16 44.32         21.3 wUEP006F52
     K20K11A  C2020 06 23.37302 15 42 12.496+04 16 51.36         21.4 wUEP006F52
     K20K11A  C2020 06 23.38486 15 42 12.450+04 16 58.18         21.1 wUEP006F52
     K20K11A  C2020 06 23.39664 15 42 12.443+04 17 05.08         21.3 wUEP006F52

Observer details:
F51 Pan-STARRS 1, Haleakala.  Observers J. Bulger, T. Lowe, A. Schultz, M.
    Willman.  Measurers K. Chambers, S. Chastel, T. de Boer, L. Denneau, J.
    Fairlamb, H. Flewelling, M. Huber, C.-C. Lin, E. Magnier, Y. Ramanjooloo,
    R. Wainscoat, R. Weryk.  1.8-m Ritchey-Chretien + CCD.
F52 Pan-STARRS 2, Haleakala.  Observers J. Bulger, T. Dukes, T. Lowe, A.
    Schultz, M. Willman.  Measurers K. Chambers, S. Chastel, T. de Boer, L.
    Denneau, J. Fairlamb, H. Flewelling, M. Huber, C.-C. Lin, E. Magnier, Y.
    Ramanjooloo, R. Wainscoat, R. Weryk.  1.8-m Ritchey-Chretien + CCD.
G96 Mt. Lemmon Survey.  Observer D. Rankin.  Measurers E. J. Christensen, G.
    A. Farneth, D. C. Fuls, A. R. Gibbs, A. D. Grauer, H. Groeller, R. A.
    Kowalski, S. M. Larson, G. J. Leonard, T. A. Pruyne, D. Rankin, R. L.
    Seaman, F. C. Shelly, K. W. Wierzchos.  1.5-m reflector + 10K CCD.

Orbital elements:
2020 KA11                                                Earth MOID = 0.2142 AU
Epoch 2020 May 31.0 TT = JDT 2459000.5                  Doppler
M 314.81213              (2000.0)            P               Q
n   0.61621632     Peri.   86.06322     +0.56461522     +0.82195325
a   1.3676677      Node   218.62486     -0.79683636     +0.51922718
e   0.1330837      Incl.    6.88690     -0.21508478     +0.23408545
P   1.60           H   22.4           G   0.15           U   4
Residuals in seconds of arc
200516 F51  0.0   0.0     200521 F51  0.0   0.0     200611 F51  0.1+  0.0
200516 F51  0.1-  0.0     200524 G96  0.1-  0.2+    200623 F52  0.1-  0.0
200516 F51  0.1+  0.0     200524 G96  0.1+  0.1-    200623 F52  0.0   0.0
200516 F51  0.0   0.1+    200524 G96  0.1-  0.2-    200623 F52  0.2-  0.1-
200521 F51  0.1-  0.1-    200524 G96  0.4-  0.0     200623 F52  0.1+  0.1-
200521 F51  0.2+  0.1-    200611 F51  0.0   0.0
200521 F51  0.0   0.0     200611 F51  0.1-  0.0

Ephemeris:
2020 KA11                a,e,i = 1.37, 0.13, 7                   q = 1.1857
Date    TT    R. A. (2000) Decl.     Delta      r    Elong.  Phase     V
2020 07 03    15 46 24.5 +05 16 31   0.2811  1.2077   127.2    42.1    21.7
...
2020 07 18    16 02 40.5 +04 52 11   0.3079  1.1945   118.6    48.4    22.0
...
2020 07 26    16 15 41.8 +03 55 24   0.3236  1.1898   115.2    50.6    22.2
...
2020 08 01    16 27 14.2 +02 58 42   0.3358  1.1874   113.1    51.8    22.3
2020 08 02    16 29 17.6 +02 48 19   0.3379  1.1871   112.8    52.0    22.3
2020 08 03    16 31 23.3 +02 37 42   0.3399  1.1869   112.5    52.2    22.4
...
2020 08 09    16 44 40.9 +01 29 42   0.3527  1.1858   110.8    53.1    22.5
...
2020 08 17    17 04 14.0 -00 09 35   0.3707  1.1860   109.0    53.8    22.6
...
2020 09 01    17 45 53.2 -03 24 17   0.4086  1.1910   106.4    54.4    22.8

M. P. C. Staff               (C) Copyright 2020 MPC           M.P.E.C. 2020-P06




More information about the Iaude mailing list